"Data set title: Gaging station water sample data. Usage: Event based table used with water chemistry collection from 01-Oct-2017 to 30-Sep-2018",,,,,,,,,,,,
,,,,,,,,,,,,,
"Site","Date","RecNum","SiteID","Flag_SiteID","LOGGERID","PROGID","VNOTCH_INST_0_0_01","Flag_VNOTCH_INST_0_0_01","SAMPLE_INST_0_0_01","Flag_SAMPLE_INST_0_0_01","STAGE_INST_0_0_01","Flag_STAGE_INST_0_0_01"
"","yyyy-MM-dd HH:mm:ss","count","","none","none","none","none","none","count","none","ft","none"
"nominal","datetime","nominal","data","code","nominal","nominal","data","code","data","code","data","code"
"GSWS02_116",2017-10-01 10:52:30,666,102.00,"",116,21807.0,0,"",22,"",0.0370,""
"GSWS02_116",2017-10-02 00:10:30,667,102.00,"",116,21807.0,0,"",23,"",0.0350,""
"GSWS02_116",2017-10-02 13:28:30,668,102.00,"",116,21807.0,0,"",24,"",0.0350,""
"GSWS02_116",2017-10-03 02:46:30,669,102.00,"",116,21807.0,0,"",25,"",0.0330,""
"GSWS02_116",2017-10-03 16:04:30,670,102.00,"",116,21807.0,0,"",26,"",0.0330,""
"GSWS02_116",2017-10-04 05:22:30,671,102.00,"",116,21807.0,0,"",27,"",0.0320,""
"GSWS02_116",2017-10-04 18:40:30,672,102.00,"",116,21807.0,0,"",28,"",0.0320,""
"GSWS02_116",2017-10-05 07:58:15,673,102.00,"",116,21807.0,0,"",29,"",0.0300,""
"GSWS02_116",2017-10-05 21:16:15,674,102.00,"",116,21807.0,0,"",30,"",0.0300,""
"GSWS02_116",2017-10-06 10:34:15,675,102.00,"",116,21807.0,0,"",31,"",0.0300,""
"GSWS02_116",2017-10-06 23:52:15,676,102.00,"",116,21807.0,0,"",32,"",0.0280,""
"GSWS02_116",2017-10-07 13:10:15,677,102.00,"",116,21807.0,0,"",33,"",0.0280,""
"GSWS02_116",2017-10-08 02:28:15,678,102.00,"",116,21807.0,0,"",34,"",0.0300,""
"GSWS02_116",2017-10-08 15:46:15,679,102.00,"",116,21807.0,0,"",35,"",0.0300,""
"GSWS02_116",2017-10-09 05:04:15,680,102.00,"",116,21807.0,0,"",36,"",0.0290,""
"GSWS02_116",2017-10-09 18:22:15,681,102.00,"",116,21807.0,0,"",37,"",0.0280,""
"GSWS02_116",2017-10-10 07:40:15,682,102.00,"",116,21807.0,0,"",38,"",0.0280,""
"GSWS02_116",2017-10-10 20:58:15,683,102.00,"",116,21807.0,0,"",39,"",0.0280,""
"GSWS02_116",2017-10-11 10:16:15,684,102.00,"",116,21807.0,0,"",40,"",0.0450,""
"GSWS02_116",2017-10-11 12:44:45,685,102.00,"",116,21807.0,0,"",41,"",0.0530,""
"GSWS02_116",2017-10-11 12:54:30,686,102.00,"",116,21807.0,0,"",42,"",0.0530,""
"GSWS02_116",2017-10-11 12:56:00,687,102.00,"",116,21807.0,0,"",43,"",0.0530,""
"GSWS02_116",2017-10-11 12:57:45,688,102.00,"",116,21807.0,0,"",44,"",0.0530,""
"GSWS02_116",2017-10-11 12:59:15,689,102.00,"",116,21807.0,0,"",45,"",0.0530,""
"GSWS02_116",2017-10-11 13:01:15,690,102.00,"",116,21807.0,0,"",46,"",0.0530,""
"GSWS02_116",2017-10-11 13:02:45,691,102.00,"",116,21807.0,0,"",47,"",0.0540,""
"GSWS02_116",2017-10-11 23:34:15,692,102.00,"",116,21807.0,0,"",1,"",0.0400,""
"GSWS02_116",2017-10-12 12:52:15,693,102.00,"",116,21807.0,0,"",2,"",0.1340,""
"GSWS02_116",2017-10-13 02:10:15,694,102.00,"",116,21807.0,0,"",3,"",0.1650,""
"GSWS02_116",2017-10-13 15:28:15,695,102.00,"",116,21807.0,0,"",4,"",0.1690,""
"GSWS02_116",2017-10-14 04:46:15,696,102.00,"",116,21807.0,0,"",5,"",0.1230,""
"GSWS02_116",2017-10-14 18:04:15,697,102.00,"",116,21807.0,0,"",6,"",0.0970,""
"GSWS02_116",2017-10-15 07:22:15,698,102.00,"",116,21807.0,0,"",7,"",0.0840,""
"GSWS02_116",2017-10-15 20:40:15,699,102.00,"",116,21807.0,0,"",8,"",0.0750,""
"GSWS02_116",2017-10-16 09:58:15,700,102.00,"",116,21807.0,0,"",9,"",0.0690,""
"GSWS02_116",2017-10-16 23:16:15,701,102.00,"",116,21807.0,0,"",10,"",0.0640,""
"GSWS02_116",2017-10-17 12:34:15,702,102.00,"",116,21807.0,0,"",11,"",0.0600,""
"GSWS02_116",2017-10-18 01:52:15,703,102.00,"",116,21807.0,0,"",12,"",0.0560,""
"GSWS02_116",2017-10-18 15:10:15,704,102.00,"",116,21807.0,0,"",13,"",0.0530,""
"GSWS02_116",2017-10-19 04:28:15,705,102.00,"",116,21807.0,0,"",14,"",0.0520,""
"GSWS02_116",2017-10-19 17:46:15,706,102.00,"",116,21807.0,0,"",15,"",0.1200,""
"GSWS02_116",2017-10-20 07:04:15,707,102.00,"",116,21807.0,0,"",16,"",0.1960,""
"GSWS02_116",2017-10-20 20:22:15,708,102.00,"",116,21807.0,0,"",17,"",0.1720,""
"GSWS02_116",2017-10-21 07:20:45,709,102.00,"",116,21807.0,0,"",18,"",0.2960,""
"GSWS02_116",2017-10-21 11:46:45,710,102.00,"",116,21807.0,0,"",19,"",0.4400,""
"GSWS02_116",2017-10-21 16:12:45,711,102.00,"",116,21807.0,0,"",20,"",0.5030,""
"GSWS02_116",2017-10-21 20:38:45,712,102.00,"",116,21807.0,0,"",21,"",0.4540,""
"GSWS02_116",2017-10-22 02:08:15,713,102.00,"",116,21807.0,0,"",22,"",0.4360,""
"GSWS02_116",2017-10-22 05:30:15,714,102.00,"",116,21807.0,0,"",23,"",0.5870,""
"GSWS02_116",2017-10-22 08:12:15,715,102.00,"",116,21807.0,0,"",24,"",0.6750,""
"GSWS02_116",2017-10-22 11:34:15,716,102.00,"",116,21807.0,0,"",25,"",0.6440,""
"GSWS02_116",2017-10-22 14:56:15,717,102.00,"",116,21807.0,0,"",26,"",0.6010,""
"GSWS02_116",2017-10-22 19:22:15,718,102.00,"",116,21807.0,0,"",27,"",0.5290,""
"GSWS02_116",2017-10-22 23:48:15,719,102.00,"",116,21807.0,0,"",28,"",0.4530,""
"GSWS02_116",2017-10-23 06:26:15,720,102.00,"",116,21807.0,0,"",29,"",0.3770,""
"GSWS02_116",2017-10-23 13:04:15,721,102.00,"",116,21807.0,0,"",30,"",0.3270,""
"GSWS02_116",2017-10-24 02:22:15,722,102.00,"",116,21807.0,0,"",31,"",0.2590,""
"GSWS02_116",2017-10-24 15:40:15,723,102.00,"",116,21807.0,0,"",32,"",0.2210,""
"GSWS02_116",2017-10-25 04:58:15,724,102.00,"",116,21807.0,0,"",33,"",0.1960,""
"GSWS02_116",2017-10-25 18:16:15,725,102.00,"",116,21807.0,0,"",34,"",0.1750,""
"GSWS02_116",2017-10-26 07:34:15,726,102.00,"",116,21807.0,0,"",35,"",0.1580,""
"GSWS02_116",2017-10-26 13:31:30,727,102.00,"",116,21807.0,0,"",36,"",0.1520,""
"GSWS02_116",2017-10-26 20:52:15,728,102.00,"",116,21807.0,0,"",37,"",0.1440,""
"GSWS02_116",2017-10-27 10:10:15,729,102.00,"",116,21807.0,0,"",38,"",0.1310,""
"GSWS02_116",2017-10-27 23:28:15,730,102.00,"",116,21807.0,0,"",39,"",0.1220,""
"GSWS02_116",2017-10-28 12:46:15,731,102.00,"",116,21807.0,0,"",40,"",0.1140,""
"GSWS02_116",2017-10-29 02:04:15,732,102.00,"",116,21807.0,0,"",41,"",0.1080,""
"GSWS02_116",2017-10-29 15:22:15,733,102.00,"",116,21807.0,0,"",42,"",0.1010,""
"GSWS02_116",2017-10-30 04:40:15,734,102.00,"",116,21807.0,0,"",43,"",0.0970,""
"GSWS02_116",2017-10-30 17:58:15,735,102.00,"",116,21807.0,0,"",44,"",0.0920,""
"GSWS02_116",2017-10-31 07:16:15,736,102.00,"",116,21807.0,0,"",45,"",0.0880,""
"GSWS02_116",2017-10-31 15:17:15,737,102.00,"",116,21807.0,0,"",46,"",0.0860,""
"GSWS02_116",2017-10-31 20:34:15,738,102.00,"",116,21807.0,0,"",1,"",0.0890,""
"GSWS02_116",2017-11-01 09:52:15,739,102.00,"",116,21807.0,0,"",2,"",0.0870,""
"GSWS02_116",2017-11-01 23:10:15,740,102.00,"",116,21807.0,0,"",3,"",0.0850,""
"GSWS02_116",2017-11-02 12:28:15,741,102.00,"",116,21807.0,0,"",4,"",0.0870,""
"GSWS02_116",2017-11-03 01:46:15,742,102.00,"",116,21807.0,0,"",5,"",0.1280,""
"GSWS02_116",2017-11-03 15:04:15,743,102.00,"",116,21807.0,0,"",6,"",0.1120,""
"GSWS02_116",2017-11-04 04:22:15,744,102.00,"",116,21807.0,0,"",7,"",0.0980,""
"GSWS02_116",2017-11-04 17:40:15,745,102.00,"",116,21807.0,0,"",8,"",0.0940,""
"GSWS02_116",2017-11-05 06:58:15,746,102.00,"",116,21807.0,0,"",9,"",0.1300,""
"GSWS02_116",2017-11-05 20:16:15,747,102.00,"",116,21807.0,0,"",10,"",0.1730,""
"GSWS02_116",2017-11-06 09:34:15,748,102.00,"",116,21807.0,0,"",11,"",0.1560,""
"GSWS02_116",2017-11-06 22:52:15,749,102.00,"",116,21807.0,0,"",12,"",0.1460,""
"GSWS02_116",2017-11-07 12:10:15,750,102.00,"",116,21807.0,0,"",13,"",0.1380,""
"GSWS02_116",2017-11-08 01:28:15,751,102.00,"",116,21807.0,0,"",14,"",0.1300,""
"GSWS02_116",2017-11-08 14:46:15,752,102.00,"",116,21807.0,0,"",15,"",0.1240,""
"GSWS02_116",2017-11-09 04:04:15,753,102.00,"",116,21807.0,0,"",16,"",0.1290,""
"GSWS02_116",2017-11-09 17:22:15,754,102.00,"",116,21807.0,0,"",17,"",0.1530,""
"GSWS02_116",2017-11-10 06:40:15,755,102.00,"",116,21807.0,0,"",18,"",0.1870,""
"GSWS02_116",2017-11-10 19:58:15,756,102.00,"",116,21807.0,0,"",19,"",0.2320,""
"GSWS02_116",2017-11-11 09:16:15,757,102.00,"",116,21807.0,0,"",20,"",0.2340,""
"GSWS02_116",2017-11-11 22:34:15,758,102.00,"",116,21807.0,0,"",21,"",0.2180,""
"GSWS02_116",2017-11-12 11:52:15,759,102.00,"",116,21807.0,0,"",22,"",0.2020,""
"GSWS02_116",2017-11-13 01:10:15,760,102.00,"",116,21807.0,0,"",23,"",0.1880,""
"GSWS02_116",2017-11-13 14:28:15,761,102.00,"",116,21807.0,0,"",24,"",0.2230,""
"GSWS02_116",2017-11-14 03:46:15,762,102.00,"",116,21807.0,0,"",25,"",0.2270,""
"GSWS02_116",2017-11-14 17:04:15,763,102.00,"",116,21807.0,0,"",26,"",0.2170,""
"GSWS02_116",2017-11-15 06:22:15,764,102.00,"",116,21807.0,0,"",27,"",0.2060,""
"GSWS02_116",2017-11-15 19:40:15,765,102.00,"",116,21807.0,0,"",28,"",0.2270,""
"GSWS02_116",2017-11-16 08:58:15,766,102.00,"",116,21807.0,0,"",29,"",0.2490,""
"GSWS02_116",2017-11-17 04:11:15,0,102.00,"",116,44756.0,0,"",1,"",0.2840,""
"GSWS02_116",2017-11-17 17:29:15,1,102.00,"",116,44756.0,0,"",2,"",0.2830,""
"GSWS02_116",2017-11-18 06:47:15,2,102.00,"",116,44756.0,0,"",3,"",0.2670,""
"GSWS02_116",2017-11-18 20:05:15,3,102.00,"",116,44756.0,0,"",4,"",0.2480,""
"GSWS02_116",2017-11-19 09:23:15,4,102.00,"",116,44756.0,0,"",5,"",0.2300,""
"GSWS02_116",2017-11-19 22:41:15,5,102.00,"",116,44756.0,0,"",6,"",0.2510,""
"GSWS02_116",2017-11-20 05:53:45,6,102.00,"",116,44756.0,0,"",7,"",0.2980,""
"GSWS02_116",2017-11-20 10:19:45,7,102.00,"",116,44756.0,0,"",8,"",0.4390,""
"GSWS02_116",2017-11-20 14:09:30,8,102.00,"",116,44756.0,0,"",9,"",0.4430,""
"GSWS02_116",2017-11-20 14:45:45,9,102.00,"",116,44756.0,0,"",1,"",0.4420,""
"GSWS02_116",2017-11-20 19:11:45,10,102.00,"",116,44756.0,0,"",2,"",0.4360,""
"GSWS02_116",2017-11-20 23:37:45,11,102.00,"",116,44756.0,0,"",3,"",0.4380,""
"GSWS02_116",2017-11-21 04:03:45,12,102.00,"",116,44756.0,0,"",4,"",0.4370,""
"GSWS02_116",2017-11-21 10:41:45,13,102.00,"",116,44756.0,0,"",5,"",0.4260,""
"GSWS02_116",2017-11-21 17:19:45,14,102.00,"",116,44756.0,0,"",6,"",0.4050,""
"GSWS02_116",2017-11-21 23:57:45,15,102.00,"",116,44756.0,0,"",7,"",0.3840,""
"GSWS02_116",2017-11-22 06:35:45,16,102.00,"",116,44756.0,0,"",8,"",0.3610,""
"GSWS02_116",2017-11-22 13:13:45,17,102.00,"",116,44756.0,0,"",9,"",0.3400,""
"GSWS02_116",2017-11-22 19:51:45,18,102.00,"",116,44756.0,0,"",10,"",0.3200,""
"GSWS02_116",2017-11-23 02:29:45,19,102.00,"",116,44756.0,0,"",11,"",0.3170,""
"GSWS02_116",2017-11-23 09:07:45,20,102.00,"",116,44756.0,0,"",12,"",0.4150,""
"GSWS02_116",2017-11-23 13:33:45,21,102.00,"",116,44756.0,0,"",13,"",0.4990,""
"GSWS02_116",2017-11-23 17:59:45,22,102.00,"",116,44756.0,0,"",14,"",0.5070,""
"GSWS02_116",2017-11-23 22:25:45,23,102.00,"",116,44756.0,0,"",15,"",0.4950,""
"GSWS02_116",2017-11-24 02:51:45,24,102.00,"",116,44756.0,0,"",16,"",0.4790,""
"GSWS02_116",2017-11-24 07:17:45,25,102.00,"",116,44756.0,0,"",17,"",0.4560,""
"GSWS02_116",2017-11-24 13:55:45,26,102.00,"",116,44756.0,0,"",18,"",0.4200,""
"GSWS02_116",2017-11-24 20:33:45,27,102.00,"",116,44756.0,0,"",19,"",0.3880,""
"GSWS02_116",2017-11-25 03:11:45,28,102.00,"",116,44756.0,0,"",20,"",0.3590,""
"GSWS02_116",2017-11-25 09:49:45,29,102.00,"",116,44756.0,0,"",21,"",0.3340,""
"GSWS02_116",2017-11-25 16:27:45,30,102.00,"",116,44756.0,0,"",22,"",0.3140,""
"GSWS02_116",2017-11-26 05:45:45,31,102.00,"",116,44756.0,0,"",23,"",0.2790,""
"GSWS02_116",2017-11-26 12:51:15,32,102.00,"",116,44756.0,0,"",24,"",0.2970,""
"GSWS02_116",2017-11-27 02:09:15,33,102.00,"",116,44756.0,0,"",25,"",0.2690,""
"GSWS02_116",2017-11-27 15:27:15,34,102.00,"",116,44756.0,0,"",26,"",0.2490,""
"GSWS02_116",2017-11-28 04:45:15,35,102.00,"",116,44756.0,0,"",27,"",0.2340,""
"GSWS02_116",2017-11-28 18:03:15,36,102.00,"",116,44756.0,0,"",28,"",0.2450,""
"GSWS02_116",2017-11-29 07:21:15,37,102.00,"",116,44756.0,0,"",29,"",0.2270,""
"GSWS02_116",2017-11-29 20:39:15,38,102.00,"",116,44756.0,0,"",30,"",0.2190,""
"GSWS02_116",2017-11-30 09:57:15,39,102.00,"",116,44756.0,0,"",31,"",0.2110,""
"GSWS02_116",2017-11-30 23:15:15,40,102.00,"",116,44756.0,0,"",32,"",0.2040,""
"GSWS02_116",2017-12-01 12:33:15,41,102.00,"",116,44756.0,0,"",33,"",0.1950,""
"GSWS02_116",2017-12-02 01:51:15,42,102.00,"",116,44756.0,0,"",34,"",0.1860,""
"GSWS02_116",2017-12-02 15:09:15,43,102.00,"",116,44756.0,0,"",35,"",0.1810,""
"GSWS02_116",2017-12-03 04:27:15,44,102.00,"",116,44756.0,0,"",36,"",0.1910,""
"GSWS02_116",2017-12-03 17:45:15,45,102.00,"",116,44756.0,0,"",37,"",0.1790,""
"GSWS02_116",2017-12-04 07:03:15,46,102.00,"",116,44756.0,0,"",38,"",0.1720,""
"GSWS02_116",2017-12-04 20:21:15,47,102.00,"",116,44756.0,0,"",39,"",0.1670,""
"GSWS02_116",2017-12-05 09:39:15,48,102.00,"",116,44756.0,0,"",40,"",0.1600,""
"GSWS02_116",2017-12-05 22:57:15,49,102.00,"",116,44756.0,0,"",41,"",0.1540,""
"GSWS02_116",2017-12-06 12:15:15,50,102.00,"",116,44756.0,0,"",42,"",0.1480,""
"GSWS02_116",2017-12-07 01:33:15,51,102.00,"",116,44756.0,0,"",43,"",0.1420,""
"GSWS02_116",2017-12-07 14:51:15,52,102.00,"",116,44756.0,0,"",44,"",0.1360,""
"GSWS02_116",2017-12-08 04:09:15,53,102.00,"",116,44756.0,0,"",45,"",0.1310,""
"GSWS02_116",2017-12-08 17:27:15,54,102.00,"",116,44756.0,0,"",46,"",0.1270,""
"GSWS02_116",2017-12-09 06:45:15,55,102.00,"",116,44756.0,0,"",47,"",0.1230,""
"GSWS02_116",2017-12-09 20:03:15,56,102.00,"",116,44756.0,0,"",48,"",0.1190,""
"GSWS02_116",2017-12-10 09:21:15,57,102.00,"",116,44756.0,0,"",49,"",0.1160,""
"GSWS02_116",2017-12-10 22:39:15,58,102.00,"",116,44756.0,0,"",50,"",0.1130,""
"GSWS02_116",2017-12-11 11:57:15,59,102.00,"",116,44756.0,0,"",51,"",0.1100,""
"GSWS02_116",2017-12-12 01:15:15,60,102.00,"",116,44756.0,0,"",52,"",0.1080,""
"GSWS02_116",2017-12-12 14:33:15,61,102.00,"",116,44756.0,0,"",53,"",0.1050,""
"GSWS02_116",2017-12-12 16:01:00,62,102.00,"",116,44756.0,0,"",54,"",0.1050,""
"GSWS02_116",2017-12-13 06:09:30,0,102.00,"",116,24843.0,0,"",1,"",0.1020,""
"GSWS02_116",2017-12-13 19:27:30,1,102.00,"",116,24843.0,0,"",2,"",0.1000,""
"GSWS02_116",2017-12-14 08:45:30,2,102.00,"",116,24843.0,0,"",3,"",0.0980,""
"GSWS02_116",2017-12-14 22:03:30,3,102.00,"",116,24843.0,0,"",4,"",0.0970,""
"GSWS02_116",2017-12-15 11:21:30,4,102.00,"",116,24843.0,0,"",5,"",0.0950,""
"GSWS02_116",2017-12-16 00:39:30,5,102.00,"",116,24843.0,0,"",6,"",0.0950,""
"GSWS02_116",2017-12-16 13:57:30,6,102.00,"",116,24843.0,0,"",7,"",0.0910,""
"GSWS02_116",2017-12-17 03:15:30,7,102.00,"",116,24843.0,0,"",8,"",0.0890,""
"GSWS02_116",2017-12-17 16:33:30,8,102.00,"",116,24843.0,0,"",9,"",0.0880,""
"GSWS02_116",2017-12-18 05:51:30,9,102.00,"",116,24843.0,0,"",10,"",0.0870,""
"GSWS02_116",2017-12-18 19:09:30,10,102.00,"",116,24843.0,0,"",11,"",0.0850,""
"GSWS02_116",2017-12-19 08:27:30,11,102.00,"",116,24843.0,0,"",12,"",0.0840,""
"GSWS02_116",2017-12-19 21:45:30,12,102.00,"",116,24843.0,0,"",13,"",0.1250,""
"GSWS02_116",2017-12-20 11:03:30,13,102.00,"",116,24843.0,0,"",14,"",0.1040,""
"GSWS02_116",2017-12-21 00:21:30,14,102.00,"",116,24843.0,0,"",15,"",0.1010,""
"GSWS02_116",2017-12-21 13:39:30,15,102.00,"",116,24843.0,0,"",16,"",0.0940,""
"GSWS02_116",2017-12-22 02:57:30,16,102.00,"",116,24843.0,0,"",17,"",0.0910,""
"GSWS02_116",2017-12-22 16:15:30,17,102.00,"",116,24843.0,0,"",18,"",0.0890,""
"GSWS02_116",2017-12-23 05:33:30,18,102.00,"",116,24843.0,0,"",19,"",0.0950,""
"GSWS02_116",2017-12-23 18:51:30,19,102.00,"",116,24843.0,0,"",20,"",0.1180,""
"GSWS02_116",2017-12-24 08:09:30,20,102.00,"",116,24843.0,0,"",21,"",0.1100,""
"GSWS02_116",2017-12-24 21:27:30,21,102.00,"",116,24843.0,0,"",22,"",0.1310,""
"GSWS02_116",2017-12-25 10:45:30,22,102.00,"",116,24843.0,0,"",23,"",0.1540,""
"GSWS02_116",2017-12-26 00:03:30,23,102.00,"",116,24843.0,0,"",24,"",0.1520,""
"GSWS02_116",2017-12-26 13:21:30,24,102.00,"",116,24843.0,0,"",25,"",0.1460,""
"GSWS02_116",2017-12-27 02:39:30,25,102.00,"",116,24843.0,0,"",26,"",0.1390,""
"GSWS02_116",2017-12-27 15:57:30,26,102.00,"",116,24843.0,0,"",27,"",0.1380,""
"GSWS02_116",2017-12-28 05:15:30,27,102.00,"",116,24843.0,0,"",28,"",0.1390,""
"GSWS02_116",2017-12-28 18:33:30,28,102.00,"",116,24843.0,0,"",29,"",0.1700,""
"GSWS02_116",2017-12-29 07:51:30,29,102.00,"",116,24843.0,0,"",30,"",0.2430,""
"GSWS02_116",2017-12-29 18:58:15,30,102.00,"",116,24843.0,0,"",31,"",0.2960,""
"GSWS02_116",2017-12-30 01:36:15,31,102.00,"",116,24843.0,0,"",32,"",0.3010,""
"GSWS02_116",2017-12-30 08:14:15,32,102.00,"",116,24843.0,0,"",33,"",0.3050,""
"GSWS02_116",2017-12-30 14:52:15,33,102.00,"",116,24843.0,0,"",34,"",0.2960,""
"GSWS02_116",2017-12-31 04:10:15,34,102.00,"",116,24843.0,0,"",35,"",0.2680,""
"GSWS02_116",2017-12-31 17:28:15,35,102.00,"",116,24843.0,0,"",36,"",0.2400,""
"GSWS02_116",2018-01-01 06:46:15,36,102.00,"",116,24843.0,0,"",37,"",0.2170,""
"GSWS02_116",2018-01-01 20:04:15,37,102.00,"",116,24843.0,0,"",38,"",0.2020,""
"GSWS02_116",2018-01-02 09:22:15,38,102.00,"",116,24843.0,0,"",39,"",0.1900,""
"GSWS02_116",2018-01-02 14:19:30,39,102.00,"",116,24843.0,0,"",40,"",0.1860,""
"GSWS02_116",2018-01-02 22:40:15,40,102.00,"",116,24843.0,0,"",1,"",0.1800,""
"GSWS02_116",2018-01-03 11:58:15,41,102.00,"",116,24843.0,0,"",2,"",0.1710,""
"GSWS02_116",2018-01-04 01:16:15,42,102.00,"",116,24843.0,0,"",3,"",0.1620,""
"GSWS02_116",2018-01-04 14:34:15,43,102.00,"",116,24843.0,0,"",4,"",0.1530,""
"GSWS02_116",2018-01-05 03:52:15,44,102.00,"",116,24843.0,0,"",5,"",0.1470,""
"GSWS02_116",2018-01-05 17:10:15,45,102.00,"",116,24843.0,0,"",6,"",0.1410,""
"GSWS02_116",2018-01-06 06:28:15,46,102.00,"",116,24843.0,0,"",7,"",0.1350,""
"GSWS02_116",2018-01-06 19:46:15,47,102.00,"",116,24843.0,0,"",8,"",0.1280,""
"GSWS02_116",2018-01-07 09:04:15,48,102.00,"",116,24843.0,0,"",9,"",0.1250,""
"GSWS02_116",2018-01-07 22:22:15,49,102.00,"",116,24843.0,0,"",10,"",0.1210,""
"GSWS02_116",2018-01-08 11:40:15,50,102.00,"",116,24843.0,0,"",11,"",0.1190,""
"GSWS02_116",2018-01-09 00:58:15,51,102.00,"",116,24843.0,0,"",12,"",0.1160,""
"GSWS02_116",2018-01-09 14:16:15,52,102.00,"",116,24843.0,0,"",13,"",0.1230,""
"GSWS02_116",2018-01-10 03:34:15,53,102.00,"",116,24843.0,0,"",14,"",0.1160,""
"GSWS02_116",2018-01-10 16:52:15,54,102.00,"",116,24843.0,0,"",15,"",0.1160,""
"GSWS02_116",2018-01-11 06:10:15,55,102.00,"",116,24843.0,0,"",16,"",0.1490,""
"GSWS02_116",2018-01-11 14:12:30,56,102.00,"",116,24843.0,0,"",17,"",0.2970,""
"GSWS02_116",2018-01-11 20:50:30,57,102.00,"",116,24843.0,0,"",18,"",0.3480,""
"GSWS02_116",2018-01-12 03:28:30,58,102.00,"",116,24843.0,0,"",19,"",0.3360,""
"GSWS02_116",2018-01-12 10:06:30,59,102.00,"",116,24843.0,0,"",20,"",0.3100,""
"GSWS02_116",2018-01-12 23:24:30,60,102.00,"",116,24843.0,0,"",21,"",0.2680,""
"GSWS02_116",2018-01-13 12:42:30,61,102.00,"",116,24843.0,0,"",22,"",0.2420,""
"GSWS02_116",2018-01-14 02:00:30,62,102.00,"",116,24843.0,0,"",23,"",0.2230,""
"GSWS02_116",2018-01-14 15:18:30,63,102.00,"",116,24843.0,0,"",24,"",0.2070,""
"GSWS02_116",2018-01-15 04:36:30,64,102.00,"",116,24843.0,0,"",25,"",0.1950,""
"GSWS02_116",2018-01-15 17:54:30,65,102.00,"",116,24843.0,0,"",26,"",0.1850,""
"GSWS02_116",2018-01-16 07:12:30,66,102.00,"",116,24843.0,0,"",27,"",0.1760,""
"GSWS02_116",2018-01-16 20:30:30,67,102.00,"",116,24843.0,0,"",28,"",0.1670,""
"GSWS02_116",2018-01-17 09:48:30,68,102.00,"",116,24843.0,0,"",29,"",0.1600,""
"GSWS02_116",2018-01-17 23:06:30,69,102.00,"",116,24843.0,0,"",30,"",0.1740,""
"GSWS02_116",2018-01-18 12:24:30,70,102.00,"",116,24843.0,0,"",31,"",0.1960,""
"GSWS02_116",2018-01-19 01:42:30,71,102.00,"",116,24843.0,0,"",32,"",0.2140,""
"GSWS02_116",2018-01-19 15:00:30,72,102.00,"",116,24843.0,0,"",33,"",0.2080,""
"GSWS02_116",2018-01-20 04:18:30,73,102.00,"",116,24843.0,0,"",34,"",0.2050,""
"GSWS02_116",2018-01-20 17:36:30,74,102.00,"",116,24843.0,0,"",35,"",0.2020,""
"GSWS02_116",2018-01-21 06:54:30,75,102.00,"",116,24843.0,0,"",36,"",0.1960,""
"GSWS02_116",2018-01-21 20:12:30,76,102.00,"",116,24843.0,0,"",37,"",0.2370,""
"GSWS02_116",2018-01-22 09:30:30,77,102.00,"",116,24843.0,0,"",38,"",0.2430,""
"GSWS02_116",2018-01-22 22:48:30,78,102.00,"",116,24843.0,0,"",39,"",0.2410,""
"GSWS02_116",2018-01-23 12:06:30,79,102.00,"",116,24843.0,0,"",40,"",0.2480,""
"GSWS02_116",2018-01-24 01:24:30,80,102.00,"",116,24843.0,0,"",41,"",0.2800,""
"GSWS02_116",2018-01-24 08:02:30,81,102.00,"",116,24843.0,0,"",42,"",0.3390,""
"GSWS02_116",2018-01-24 14:40:30,82,102.00,"",116,24843.0,0,"",43,"",0.3550,""
"GSWS02_116",2018-01-24 15:27:45,83,102.00,"",116,24843.0,0,"",44,"",0.3580,""
"GSWS02_116",2018-01-24 21:18:30,84,102.00,"",116,24843.0,0,"",1,"",0.3680,""
"GSWS02_116",2018-01-25 03:56:30,85,102.00,"",116,24843.0,0,"",2,"",0.3620,""
"GSWS02_116",2018-01-25 10:34:30,86,102.00,"",116,24843.0,0,"",3,"",0.3530,""
"GSWS02_116",2018-01-25 17:12:30,87,102.00,"",116,24843.0,0,"",4,"",0.3410,""
"GSWS02_116",2018-01-25 23:50:30,88,102.00,"",116,24843.0,0,"",5,"",0.3310,""
"GSWS02_116",2018-01-26 06:28:30,89,102.00,"",116,24843.0,0,"",6,"",0.3140,""
"GSWS02_116",2018-01-26 13:06:30,90,102.00,"",116,24843.0,0,"",7,"",0.3030,""
"GSWS02_116",2018-01-27 02:24:30,91,102.00,"",116,24843.0,0,"",8,"",0.2900,""
"GSWS02_116",2018-01-27 09:02:30,92,102.00,"",116,24843.0,0,"",9,"",0.3580,""
"GSWS02_116",2018-01-27 13:50:00,93,102.00,"",116,24843.0,0,"",10,"",0.4360,""
"GSWS02_116",2018-01-27 18:16:00,94,102.00,"",116,24843.0,0,"",11,"",0.4750,""
"GSWS02_116",2018-01-27 22:42:00,95,102.00,"",116,24843.0,0,"",12,"",0.4890,""
"GSWS02_116",2018-01-28 03:08:00,96,102.00,"",116,24843.0,0,"",13,"",0.5000,""
"GSWS02_116",2018-01-28 07:34:00,97,102.00,"",116,24843.0,0,"",14,"",0.5000,""
"GSWS02_116",2018-01-28 12:00:00,98,102.00,"",116,24843.0,0,"",15,"",0.4930,""
"GSWS02_116",2018-01-28 16:26:00,99,102.00,"",116,24843.0,0,"",16,"",0.4810,""
"GSWS02_116",2018-01-28 20:52:00,100,102.00,"",116,24843.0,0,"",17,"",0.4590,""
"GSWS02_116",2018-01-29 01:18:00,101,102.00,"",116,24843.0,0,"",18,"",0.4380,""
"GSWS02_116",2018-01-29 07:56:00,102,102.00,"",116,24843.0,0,"",19,"",0.4100,""
"GSWS02_116",2018-01-29 14:34:00,103,102.00,"",116,24843.0,0,"",20,"",0.3820,""
"GSWS02_116",2018-01-29 21:12:00,104,102.00,"",116,24843.0,0,"",21,"",0.3640,""
"GSWS02_116",2018-01-30 03:50:00,105,102.00,"",116,24843.0,0,"",22,"",0.3440,""
"GSWS02_116",2018-01-30 10:28:00,106,102.00,"",116,24843.0,0,"",23,"",0.3260,""
"GSWS02_116",2018-01-30 17:06:00,107,102.00,"",116,24843.0,0,"",24,"",0.3110,""
"GSWS02_116",2018-01-30 23:44:00,108,102.00,"",116,24843.0,0,"",25,"",0.2980,""
"GSWS02_116",2018-01-31 13:02:00,109,102.00,"",116,24843.0,0,"",26,"",0.2740,""
"GSWS02_116",2018-02-01 02:20:00,110,102.00,"",116,24843.0,0,"",27,"",0.2550,""
"GSWS02_116",2018-02-01 15:38:00,111,102.00,"",116,24843.0,0,"",28,"",0.2380,""
"GSWS02_116",2018-02-02 04:56:00,112,102.00,"",116,24843.0,0,"",29,"",0.2270,""
"GSWS02_116",2018-02-02 18:14:00,113,102.00,"",116,24843.0,0,"",30,"",0.2140,""
"GSWS02_116",2018-02-03 07:32:00,114,102.00,"",116,24843.0,0,"",31,"",0.2030,""
"GSWS02_116",2018-02-03 20:50:00,115,102.00,"",116,24843.0,0,"",32,"",0.1960,""
"GSWS02_116",2018-02-04 10:08:00,116,102.00,"",116,24843.0,0,"",33,"",0.1870,""
"GSWS02_116",2018-02-04 23:26:00,117,102.00,"",116,24843.0,0,"",34,"",0.1800,""
"GSWS02_116",2018-02-05 12:44:00,118,102.00,"",116,24843.0,0,"",35,"",0.1750,""
"GSWS02_116",2018-02-06 02:02:00,119,102.00,"",116,24843.0,0,"",36,"",0.1660,""
"GSWS02_116",2018-02-06 15:20:00,120,102.00,"",116,24843.0,0,"",37,"",0.1600,""
"GSWS02_116",2018-02-07 04:38:00,121,102.00,"",116,24843.0,0,"",38,"",0.1540,""
"GSWS02_116",2018-02-07 17:56:00,122,102.00,"",116,24843.0,0,"",39,"",0.1480,""
"GSWS02_116",2018-02-08 07:14:00,123,102.00,"",116,24843.0,0,"",40,"",0.1430,""
"GSWS02_116",2018-02-08 20:32:00,124,102.00,"",116,24843.0,0,"",41,"",0.1380,""
"GSWS02_116",2018-02-09 09:50:00,125,102.00,"",116,24843.0,0,"",42,"",0.1330,""
"GSWS02_116",2018-02-09 23:08:00,126,102.00,"",116,24843.0,0,"",43,"",0.1310,""
"GSWS02_116",2018-02-10 12:26:00,127,102.00,"",116,24843.0,0,"",44,"",0.1250,""